Showing default

COSMOS 2270, 23001

Orbit data source: Space-Track

COSMOS 2270, 23001 is a payload satellite owned by VKS (CIS) in LEO that was launched on Sat, 12 Feb 1994 UTC via a TSIKLON-3 launch vehicle from the Plesetsk Missile And Space Complex (PKMTR). Payload-class satellites include a variety of spacecraft equipped with specific instruments for various scientific and technological missions. These include communications satellites like Starlink; space stations such as the ISS; scientific satellites like the Hubble; Earth observation satellites from companies like Planet Labs, Umbra, and HawkEye 360; GPS; miniature CubeSats for education and research; and military/defense satellites.

Loading next visibility...
Identifier
23001, 1994-011C
Orbit
LEO
Country
Flag of CISCIS
Related business
Manufacturer
NPO PM
Mission
Defense Communications
Bus & Motor
STRELA-3, Unknown motor
Mass
225 kg wet, 225 kg dry
Launch date (UTC)
1994-02-12 (32 years ago)
Launch vehicle
TSIKLON-3
Launch site
Plesetsk Missile And Space Complex (PKMTR)
Object type
Payload
Rocket body
Debris
Shape & HBR
Cyl, 0.8 m
Radar Cross Section
1.257 m², Large (>1 m²)

Expand to show TLE details & history
Last TLE update: 22 hours ago

TLE from 22 hours ago
0 COSMOS 2270
1 23001U 94011C   25260.13364257  .00000017  00000-0  36534-4 0  9990
2 23001  82.5723 128.3890 0008292  77.8972  90.8615 12.62925807456182
Epoch: 2025-09-17T03:12Z
TLE epoch observation values (Epoch: 2025-09-17T03:12:26.718Z)
Latitude
11.00607°
Longitude
-97.48203°
Altitude
1,412.976 km
Speed
7.155 km/s
True Right ascension
20h 27m 46s
True Declination
10° 56' 50"
Sunlit
Object was in full shadow at epoch
Visualization orbit readout
Latitude
Unknown
Longitude
Unknown
Altitude
Unknown
Speed
Unknown
Apparent Right ascension
Unknown
Apparent Declination
Unknown
Sunlit
N/A
Visualization observer readout
Local Sidereal Time
18:08:16
Azimuth
Unknown
Elevation
Unknown
Doppler factor
Unknown
Orbital elements
Apogee altitude
1,414.668 km
Perigee altitude
1,401.755 km
Semi-major axis
7,786.348 km
Eccentricity
0.00083
Inclination
82.5723°
RAAN
128.389°
Arg. of periapsis
77.8972°
True anomaly
90.95651°
Mean anomaly
90.8615°
Eccentric anomaly
90.909°
Mean motion
3.15895 °/min
Orbital period
113.96 mins
BSTAR
0.000036534
Loading maneuver chart data...
Computing Atmospheric mass density...
Loading historical data...
Loading historical data...
Loading historical data...
Loading historical data...
Loading historical data...
Loading historical data...
Loading historical data...

Documentation

Showing up to 5 results
|